| time (UTC) | temp C | wind direction | speed KPH | gust KPH | rain 1hr cm | rain 24hr cm | rain mn cm | humidity % | barometer mb |
| 20260904135340 | 26 | 157 | 3.2 | 8.0 | 0.00 | 0.00 | 0.00 | 90 | 1011.8 |
| 20260904134331 | 26 | 169 | 1.6 | 6.4 | 0.00 | 0.00 | 0.00 | 90 | 1011.9 |
| 20260904133348 | 26 | 167 | 1.6 | 6.4 | 0.00 | 0.00 | 0.00 | 90 | 1011.7 |
| 20260904132345 | 26 | 186 | 1.6 | 8.0 | 0.00 | 0.00 | 0.00 | 90 | 1011.6 |
| 20260904131355 | 26 | 173 | 3.2 | 11.3 | 0.00 | 0.00 | 0.00 | 90 | 1011.5 |
| 20260904130356 | 26 | 178 | 1.6 | 12.9 | 0.00 | 0.00 | 0.00 | 90 | 1011.4 |
| 20260904125351 | 26 | 159 | 3.2 | 14.5 | 0.00 | 0.00 | 0.00 | 90 | 1011.4 |
| 20260904124345 | 26 | 181 | 6.4 | 14.5 | 0.00 | 0.00 | 0.00 | 90 | 1011.2 |
| 20260904123338 | 26 | 146 | 6.4 | 12.9 | 0.00 | 0.00 | 0.00 | 90 | 1011.1 |
| 20260904122342 | 25 | 159 | 3.2 | 12.9 | 0.00 | 0.00 | 0.00 | 91 | 1011.0 |
| 20260904121346 | 25 | 134 | 4.8 | 12.9 | 0.00 | 0.00 | 0.00 | 91 | 1010.9 |
| 20260904115252 | 25 | 155 | 3.2 | 11.3 | 0.00 | 0.00 | 0.00 | 91 | 1010.6 |
| 20260904114233 | 25 | 164 | 4.8 | 14.5 | 0.00 | 0.00 | 0.00 | 91 | 1010.4 |
| 20260904113213 | 25 | 137 | 4.8 | 14.5 | 0.00 | 0.00 | 0.00 | 90 | 1010.4 |
| 20260904111042 | 25 | 88 | 3.2 | 11.3 | 0.00 | 0.00 | 0.00 | 90 | 1010.3 |
| 20260904110023 | 25 | 119 | 1.6 | 8.0 | 0.00 | 0.00 | 0.00 | 90 | 1010.2 |
| 20260904104950 | 26 | 149 | 3.2 | 14.5 | 0.00 | 0.00 | 0.00 | 89 | 1010.1 |
| 20260904103929 | 26 | 184 | 4.8 | 14.5 | 0.00 | 0.00 | 0.00 | 89 | 1009.7 |
| 20260904101713 | 26 | 191 | 3.2 | 11.3 | 0.00 | 0.00 | 0.00 | 89 | 1009.8 |
| 20260904100722 | 26 | 172 | 3.2 | 12.9 | 0.00 | 0.00 | 0.00 | 89 | 1010.0 |
| 20260904095648 | 26 | 182 | 1.6 | 14.5 | 0.00 | 0.00 | 0.00 | 88 | 1009.9 |
| 20260904093514 | 26 | 184 | 3.2 | 11.3 | 0.00 | 0.00 | 0.00 | 88 | 1009.6 |
| 20260904092500 | 26 | 193 | 4.8 | 11.3 | 0.00 | 0.00 | 0.00 | 88 | 1009.5 |
| 20260904091516 | 26 | 167 | 3.2 | 11.3 | 0.00 | 0.00 | 0.00 | 88 | 1009.7 |
| 20260904090506 | 26 | 188 | 3.2 | 11.3 | 0.00 | 0.00 | 0.00 | 88 | 1009.8 |
| 20260904085521 | 26 | 184 | 4.8 | 12.9 | 0.00 | 0.00 | 0.00 | 88 | 1009.8 |
| 20260904084518 | 26 | 192 | 6.4 | 14.5 | 0.00 | 0.00 | 0.00 | 87 | 1009.7 |
| 20260904083451 | 26 | 193 | 6.4 | 16.1 | 0.00 | 0.00 | 0.00 | 87 | 1009.7 |
| 20260904073856 | 26 | 172 | 6.4 | 20.9 | 0.00 | 0.00 | 0.00 | 85 | 1009.9 |
| 20260904072918 | 26 | 150 | 6.4 | 20.9 | 0.00 | 0.00 | 0.00 | 85 | 1009.9 |
| 20260904071902 | 26 | 189 | 6.4 | 20.9 | 0.00 | 0.00 | 0.00 | 85 | 1010.0 |
| 20260904070830 | 26 | 208 | 6.4 | 17.7 | 0.00 | 0.00 | 0.00 | 85 | 1010.1 |
| 20260904064711 | 26 | 157 | 9.7 | 24.1 | 0.00 | 0.00 | 0.00 | 84 | 1010.1 |
| 20260904063656 | 26 | 174 | 6.4 | 24.1 | 0.00 | 0.00 | 0.00 | 83 | 1010.1 |
| 20260904062647 | 26 | 159 | 8.0 | 20.9 | 0.00 | 0.00 | 0.00 | 83 | 1010.1 |
| 20260904060537 | 26 | 144 | 8.0 | 17.7 | 0.00 | 0.00 | 0.00 | 82 | 1010.1 |
| 20260904055515 | 26 | 194 | 6.4 | 16.1 | 0.00 | 0.00 | 0.00 | 81 | 1010.2 |
| 20260904054537 | 26 | 178 | 6.4 | 16.1 | 0.00 | 0.00 | 0.00 | 81 | 1010.2 |
| 20260904053517 | 26 | 165 | 4.8 | 14.5 | 0.00 | 0.00 | 0.00 | 81 | 1010.1 |
| 20260904051341 | 26 | 162 | 8.0 | 20.9 | 0.00 | 0.00 | 0.00 | 80 | 1009.9 |
| 20260904050326 | 26 | 174 | 4.8 | 16.1 | 0.00 | 0.00 | 0.00 | 80 | 1009.8 |
| 20260904044211 | 26 | 170 | 4.8 | 17.7 | 0.00 | 0.00 | 0.00 | 79 | 1009.9 |
| 20260904043200 | 27 | 157 | 6.4 | 17.7 | 0.00 | 0.00 | 0.00 | 78 | 1009.9 |
| 20260904041235 | 27 | 204 | 8.0 | 25.7 | 0.00 | 0.00 | 0.00 | 77 | 1009.8 |
| 20260904040200 | 27 | 142 | 8.0 | 25.7 | 0.00 | 0.00 | 0.00 | 76 | 1009.8 |
| 20260904032821 | 27 | 144 | 6.4 | 20.9 | 0.00 | 0.00 | 0.00 | 75 | 1009.6 |
| 20260904031747 | 27 | 153 | 6.4 | 20.9 | 0.00 | 0.00 | 0.00 | 74 | 1009.5 |
| 20260904030733 | 28 | 138 | 6.4 | 17.7 | 0.00 | 0.00 | 0.00 | 72 | 1009.4 |
| 20260904025754 | 28 | 170 | 8.0 | 24.1 | 0.00 | 0.00 | 0.00 | 71 | 1009.3 |
| 20260904024744 | 28 | 188 | 9.7 | 24.1 | 0.00 | 0.00 | 0.00 | 71 | 1009.2 |
| 20260904023750 | 28 | 155 | 8.0 | 22.5 | 0.00 | 0.00 | 0.00 | 72 | 1009.1 |
| 20260904022731 | 28 | 165 | 6.4 | 16.1 | 0.00 | 0.00 | 0.00 | 72 | 1009.1 |
| 20260904020619 | 28 | 131 | 4.8 | 16.1 | 0.00 | 0.00 | 0.00 | 72 | 1008.8 |
| 20260904015602 | 28 | 177 | 6.4 | 17.7 | 0.00 | 0.00 | 0.00 | 71 | 1008.5 |
| 20260904013442 | 28 | 162 | 8.0 | 19.3 | 0.00 | 0.00 | 0.00 | 70 | 1008.4 |
| 20260904012438 | 29 | 98 | 9.7 | 19.3 | 0.00 | 0.00 | 0.00 | 69 | 1008.4 |
| 20260904010325 | 30 | 150 | 8.0 | 25.7 | 0.00 | 0.00 | 0.00 | 66 | 1008.2 |
| 20260904005308 | 30 | 154 | 9.7 | 25.7 | 0.00 | 0.00 | 0.00 | 65 | 1008.1 |
| 20260904004241 | 30 | 101 | 9.7 | 29.0 | 0.00 | 0.00 | 0.00 | 64 | 1008.2 |
| 20260904003255 | 30 | 153 | 9.7 | 29.0 | 0.00 | 0.00 | 0.00 | 63 | 1008.2 |
| 20260904002228 | 30 | 155 | 6.4 | 19.3 | 0.00 | 0.00 | 0.00 | 62 | 1008.1 |
| 20260904001228 | 31 | 161 | 8.0 | 22.5 | 0.00 | 0.00 | 0.00 | 62 | 1008.1 |
| 20260903235052 | 31 | 151 | 9.7 | 22.5 | 0.00 | 0.00 | 0.00 | 62 | 1007.9 |
| 20260903234050 | 31 | 137 | 11.3 | 22.5 | 0.00 | 0.00 | 0.00 | 60 | 1007.9 |
| 20260903233022 | 32 | 121 | 9.7 | 29.0 | 0.00 | 0.00 | 0.00 | 60 | 1007.8 |
| 20260903230819 | 33 | 111 | 14.5 | 30.6 | 0.00 | 0.00 | 0.00 | 56 | 1007.7 |
| 20260903224651 | 35 | 97 | 6.4 | 17.7 | 0.00 | 0.00 | 0.00 | 50 | 1007.3 |
| 20260903223639 | 35 | 121 | 9.7 | 20.9 | 0.00 | 0.00 | 0.00 | 50 | 1007.2 |
| 20260903222624 | 35 | 134 | 11.3 | 27.4 | 0.00 | 0.00 | 0.00 | 48 | 1007.3 |
| 20260903220522 | 36 | 166 | 8.0 | 22.5 | 0.00 | 0.00 | 0.00 | 44 | 1007.0 |
| 20260903215539 | 37 | 142 | 6.4 | 22.5 | 0.00 | 0.00 | 0.00 | 43 | 1006.9 |
| 20260903214540 | 37 | 172 | 6.4 | 16.1 | 0.00 | 0.00 | 0.00 | 42 | 1007.0 |
| 20260903213530 | 37 | 218 | 6.4 | 22.5 | 0.00 | 0.00 | 0.00 | 42 | 1007.1 |
| 20260903212513 | 37 | 139 | 6.4 | 22.5 | 0.00 | 0.00 | 0.00 | 42 | 1007.2 |
| 20260903211506 | 37 | 129 | 4.8 | 16.1 | 0.00 | 0.00 | 0.00 | 40 | 1007.2 |
| 20260903210518 | 38 | 165 | 3.2 | 17.7 | 0.00 | 0.00 | 0.00 | 39 | 1007.3 |
| 20260903204321 | 38 | 224 | 6.4 | 20.9 | 0.00 | 0.00 | 0.00 | 42 | 1007.7 |
| 20260903203342 | 38 | 65 | 6.4 | 17.7 | 0.00 | 0.00 | 0.00 | 41 | 1007.8 |
| 20260903202324 | 38 | 178 | 3.2 | 16.1 | 0.00 | 0.00 | 0.00 | 40 | 1007.9 |
| 20260903201307 | 38 | 196 | 4.8 | 16.1 | 0.00 | 0.00 | 0.00 | 40 | 1008.1 |
| 20260903200327 | 38 | 197 | 3.2 | 12.9 | 0.00 | 0.00 | 0.00 | 39 | 1008.1 |
| 20260903195330 | 38 | 261 | 4.8 | 16.1 | 0.00 | 0.00 | 0.00 | 41 | 1008.1 |
| 20260903194323 | 37 | 191 | 6.4 | 16.1 | 0.00 | 0.00 | 0.00 | 42 | 1008.2 |
| 20260903193249 | 38 | 151 | 3.2 | 14.5 | 0.00 | 0.00 | 0.00 | 42 | 1008.4 |
| 20260903192229 | 37 | 205 | 4.8 | 14.5 | 0.00 | 0.00 | 0.00 | 44 | 1008.7 |
| 20260903190138 | 37 | 167 | 3.2 | 19.3 | 0.00 | 0.00 | 0.00 | 44 | 1009.0 |
| 20260903185105 | 37 | 192 | 6.4 | 19.3 | 0.00 | 0.00 | 0.00 | 45 | 1009.2 |
| 20260903184040 | 37 | 215 | 6.4 | 16.1 | 0.00 | 0.00 | 0.00 | 46 | 1009.3 |
| 20260903183036 | 36 | 205 | 6.4 | 17.7 | 0.00 | 0.00 | 0.00 | 47 | 1009.4 |
| 20260903182039 | 36 | 165 | 6.4 | 17.7 | 0.00 | 0.00 | 0.00 | 47 | 1009.6 |
| 20260903181023 | 36 | 197 | 3.2 | 16.1 | 0.00 | 0.00 | 0.00 | 47 | 1009.7 |
| 20260903180042 | 36 | 208 | 4.8 | 24.1 | 0.00 | 0.00 | 0.00 | 46 | 1009.8 |
| 20260903175047 | 36 | 166 | 6.4 | 24.1 | 0.00 | 0.00 | 0.00 | 49 | 1009.9 |
| 20260903174107 | 35 | 163 | 8.0 | 24.1 | 0.00 | 0.00 | 0.00 | 49 | 1009.8 |
| 20260903173123 | 35 | 155 | 3.2 | 16.1 | 0.00 | 0.00 | 0.00 | 51 | 1010.0 |
| 20260903171006 | 35 | 173 | 6.4 | 19.3 | 0.00 | 0.00 | 0.00 | 52 | 1010.3 |
| 20260903170022 | 35 | 200 | 4.8 | 11.3 | 0.00 | 0.00 | 0.00 | 53 | 1010.5 |
| 20260903165034 | 34 | 246 | 4.8 | 17.7 | 0.00 | 0.00 | 0.00 | 54 | 1010.5 |
| 20260903164040 | 33 | 196 | 6.4 | 24.1 | 0.00 | 0.00 | 0.00 | 56 | 1010.6 |
| 20260903161909 | 33 | 219 | 6.4 | 19.3 | 0.00 | 0.00 | 0.00 | 57 | 1010.6 |
| 20260903160932 | 32 | 202 | 3.2 | 16.1 | 0.00 | 0.00 | 0.00 | 59 | 1010.6 |
| 20260903155931 | 32 | 231 | 6.4 | 20.9 | 0.00 | 0.00 | 0.00 | 59 | 1010.6 |
| 20260903153739 | 31 | 184 | 4.8 | 22.5 | 0.00 | 0.00 | 0.00 | 64 | 1010.6 |
| 20260903152753 | 31 | 255 | 6.4 | 22.5 | 0.00 | 0.00 | 0.00 | 65 | 1010.5 |
| 20260903150641 | 30 | 218 | 4.8 | 22.5 | 0.00 | 0.00 | 0.00 | 68 | 1010.5 |
| 20260903144525 | 29 | 173 | 4.8 | 14.5 | 0.00 | 0.00 | 0.00 | 72 | 1010.4 |
| 20260903142356 | 28 | 214 | 4.8 | 24.1 | 0.00 | 0.00 | 0.00 | 75 | 1010.4 |